Year,Month,Day,Hour,Minute,Value (Times are PST for temperature in C)
2016,03,07,00,00,8.70
2016,03,07,00,01,8.70
2016,03,07,00,02,8.70
2016,03,07,00,03,8.70
2016,03,07,00,04,8.70
2016,03,07,00,05,8.70
2016,03,07,00,06,8.70
2016,03,07,00,07,8.70
2016,03,07,00,08,8.70
2016,03,07,00,09,8.70
2016,03,07,00,10,8.70
2016,03,07,00,11,8.70
2016,03,07,00,12,8.70
2016,03,07,00,13,8.70
2016,03,07,00,14,8.70
2016,03,07,00,15,8.70
2016,03,07,00,16,8.70
2016,03,07,00,17,8.70
2016,03,07,00,18,8.70
2016,03,07,00,19,8.70
2016,03,07,00,20,8.70
2016,03,07,00,21,8.70
2016,03,07,00,22,8.70
2016,03,07,00,23,8.60
2016,03,07,00,24,8.60
2016,03,07,00,25,8.60
2016,03,07,00,26,8.60
2016,03,07,00,27,8.60
2016,03,07,00,28,8.60
2016,03,07,00,29,8.60
2016,03,07,00,30,8.60
2016,03,07,00,31,8.60
2016,03,07,00,32,8.60
2016,03,07,00,33,8.60
2016,03,07,00,34,8.50
2016,03,07,00,35,8.50
2016,03,07,00,36,8.60
2016,03,07,00,38,8.60
2016,03,07,00,39,8.60
2016,03,07,00,40,8.60
2016,03,07,00,42,8.60
2016,03,07,00,43,8.60
2016,03,07,00,44,8.60
2016,03,07,00,46,8.60
2016,03,07,00,47,8.70
2016,03,07,00,48,8.70
2016,03,07,00,49,8.70
2016,03,07,00,51,8.70
2016,03,07,00,52,8.70
2016,03,07,00,53,8.70
2016,03,07,00,54,8.70
2016,03,07,00,56,8.70
2016,03,07,00,57,8.70
2016,03,07,00,58,8.70
2016,03,07,00,59,8.70
2016,03,07,01,01,8.70
2016,03,07,01,02,8.70
2016,03,07,01,03,8.70
2016,03,07,01,04,8.70
2016,03,07,01,06,8.70
2016,03,07,01,07,8.70
2016,03,07,01,08,8.70
2016,03,07,01,09,8.70
2016,03,07,01,11,8.70
2016,03,07,01,12,8.70
2016,03,07,01,13,8.70
2016,03,07,01,14,8.70
2016,03,07,01,16,8.80
2016,03,07,01,17,8.70
2016,03,07,01,18,8.70
2016,03,07,01,19,8.70
2016,03,07,01,21,8.70
2016,03,07,01,22,8.70
2016,03,07,01,23,8.70
2016,03,07,01,24,8.70
2016,03,07,01,26,8.70
2016,03,07,01,27,8.70
2016,03,07,01,28,8.70
2016,03,07,01,29,8.70
2016,03,07,01,31,8.60
2016,03,07,01,32,8.60
2016,03,07,01,33,8.60
2016,03,07,01,34,8.60
2016,03,07,01,35,8.50
2016,03,07,01,36,8.50
2016,03,07,01,37,8.50
2016,03,07,01,38,8.50
2016,03,07,01,39,8.50
2016,03,07,01,40,8.40
2016,03,07,01,41,8.40
2016,03,07,01,42,8.40
2016,03,07,01,43,8.40
2016,03,07,01,44,8.40
2016,03,07,01,45,8.40
2016,03,07,01,46,8.40
2016,03,07,01,47,8.40
2016,03,07,01,48,8.40
2016,03,07,01,49,8.40
2016,03,07,01,50,8.40
2016,03,07,01,51,8.40
2016,03,07,01,52,8.40
2016,03,07,01,53,8.40
2016,03,07,01,54,8.40
2016,03,07,01,55,8.40
2016,03,07,01,56,8.40
2016,03,07,01,57,8.40
2016,03,07,01,58,8.40
2016,03,07,01,59,8.40
2016,03,07,02,00,8.40
2016,03,07,02,01,8.40
2016,03,07,02,02,8.40
2016,03,07,02,03,8.40
2016,03,07,02,04,8.30
2016,03,07,02,05,8.30
2016,03,07,02,06,8.30
2016,03,07,02,07,8.30
2016,03,07,02,08,8.30
2016,03,07,02,09,8.30
2016,03,07,02,10,8.30
2016,03,07,02,11,8.30
2016,03,07,02,12,8.30
2016,03,07,02,13,8.30
2016,03,07,02,14,8.30
2016,03,07,02,15,8.30
2016,03,07,02,16,8.30
2016,03,07,02,17,8.30
2016,03,07,02,18,8.30
2016,03,07,02,19,8.30
2016,03,07,02,20,8.20
2016,03,07,02,21,8.20
2016,03,07,02,22,8.20
2016,03,07,02,23,8.10
2016,03,07,02,24,8.10
2016,03,07,02,25,8.00
2016,03,07,02,26,8.00
2016,03,07,02,27,7.90
2016,03,07,02,28,7.90
2016,03,07,02,29,7.90
2016,03,07,02,30,7.80
2016,03,07,02,31,7.80
2016,03,07,02,32,7.80
2016,03,07,02,33,7.80
2016,03,07,02,34,7.80
2016,03,07,02,35,7.80
2016,03,07,02,36,7.80
2016,03,07,02,37,7.80
2016,03,07,02,38,7.80
2016,03,07,02,39,7.80
2016,03,07,02,40,7.90
2016,03,07,02,41,7.90
2016,03,07,02,42,7.90
2016,03,07,02,43,7.90
2016,03,07,02,44,7.90
2016,03,07,02,45,7.90
2016,03,07,02,46,7.90
2016,03,07,02,47,7.90
2016,03,07,02,48,7.90
2016,03,07,02,49,7.90
2016,03,07,02,50,7.90
2016,03,07,02,51,8.00
2016,03,07,02,52,8.00
2016,03,07,02,53,8.00
2016,03,07,02,54,8.00
2016,03,07,02,55,8.00
2016,03,07,02,56,8.00
2016,03,07,02,57,8.00
2016,03,07,02,58,8.00
2016,03,07,02,59,8.00
2016,03,07,03,00,8.00
2016,03,07,03,01,8.00
2016,03,07,03,02,8.00
2016,03,07,03,03,8.00
2016,03,07,03,04,8.00
2016,03,07,03,05,8.00
2016,03,07,03,06,8.00
2016,03,07,03,07,8.00
2016,03,07,03,08,8.00
2016,03,07,03,09,8.00
2016,03,07,03,10,8.00
2016,03,07,03,12,8.00
2016,03,07,03,13,8.00
2016,03,07,03,14,8.00
2016,03,07,03,16,8.00
2016,03,07,03,17,8.00
2016,03,07,03,18,8.00
2016,03,07,03,19,8.00
2016,03,07,03,21,8.00
2016,03,07,03,22,8.00
2016,03,07,03,23,8.00
2016,03,07,03,24,8.10
2016,03,07,03,26,8.10
2016,03,07,03,27,8.10
2016,03,07,03,28,8.00
2016,03,07,03,29,8.00
2016,03,07,03,31,8.00
2016,03,07,03,32,8.00
2016,03,07,03,33,8.00
2016,03,07,03,34,8.00
2016,03,07,03,36,7.90
2016,03,07,03,37,7.90
2016,03,07,03,38,7.90
2016,03,07,03,39,7.90
2016,03,07,03,41,7.90
2016,03,07,03,42,7.90
2016,03,07,03,43,7.80
2016,03,07,03,44,7.80
2016,03,07,03,46,7.80
2016,03,07,03,47,7.80
2016,03,07,03,48,7.80
2016,03,07,03,49,7.80
2016,03,07,03,51,7.80
2016,03,07,03,52,7.80
2016,03,07,03,53,7.80
2016,03,07,03,54,7.80
2016,03,07,03,56,7.80
2016,03,07,03,57,7.80
2016,03,07,03,58,7.80
2016,03,07,03,59,7.80
2016,03,07,04,01,7.80
2016,03,07,04,02,7.80
2016,03,07,04,03,7.80
2016,03,07,04,04,7.80
2016,03,07,04,06,7.80
2016,03,07,04,07,7.80
2016,03,07,04,08,7.80
2016,03,07,04,09,7.80
2016,03,07,04,11,7.80
2016,03,07,04,12,7.80
2016,03,07,04,13,7.80
2016,03,07,04,14,7.80
2016,03,07,04,15,7.80
2016,03,07,04,16,7.80
2016,03,07,04,17,7.80
2016,03,07,04,18,7.80
2016,03,07,04,19,7.80
2016,03,07,04,21,7.80
2016,03,07,04,22,7.80
2016,03,07,04,23,7.80
2016,03,07,04,24,7.80
2016,03,07,04,25,7.80
2016,03,07,04,26,7.80
2016,03,07,04,27,7.80
2016,03,07,04,28,7.80
2016,03,07,04,29,7.80
2016,03,07,04,30,7.80
2016,03,07,04,31,7.80
2016,03,07,04,32,7.80
2016,03,07,04,33,7.80
2016,03,07,04,34,7.80
2016,03,07,04,35,7.80
2016,03,07,04,36,7.80
2016,03,07,04,37,7.80
2016,03,07,04,38,7.80
2016,03,07,04,39,7.80
2016,03,07,04,40,7.80
2016,03,07,04,41,7.80
2016,03,07,04,42,7.80
2016,03,07,04,43,7.80
2016,03,07,04,44,7.80
2016,03,07,04,45,7.80
2016,03,07,04,46,7.80
2016,03,07,04,47,7.80
2016,03,07,04,48,7.80
2016,03,07,04,49,7.80
2016,03,07,04,50,7.80
2016,03,07,04,51,7.80
2016,03,07,04,52,7.80
2016,03,07,04,53,7.80
2016,03,07,04,54,7.80
2016,03,07,04,55,7.80
2016,03,07,04,56,7.80
2016,03,07,04,57,7.80
2016,03,07,04,58,7.80
2016,03,07,04,59,7.80
2016,03,07,05,00,7.80
2016,03,07,05,01,7.80
2016,03,07,05,02,7.80
2016,03,07,05,03,7.80
2016,03,07,05,04,7.80
2016,03,07,05,05,7.80
2016,03,07,05,06,7.80
2016,03,07,05,07,7.80
2016,03,07,05,08,7.80
2016,03,07,05,09,7.80
2016,03,07,05,10,7.80
2016,03,07,05,11,7.80
2016,03,07,05,12,7.80
2016,03,07,05,13,7.80
2016,03,07,05,14,7.80
2016,03,07,05,15,7.80
2016,03,07,05,16,7.80
2016,03,07,05,17,7.80
2016,03,07,05,18,7.80
2016,03,07,05,19,7.80
2016,03,07,05,20,7.80
2016,03,07,05,21,7.80
2016,03,07,05,22,7.80
2016,03,07,05,23,7.80
2016,03,07,05,24,7.80
2016,03,07,05,25,7.80
2016,03,07,05,26,7.80
2016,03,07,05,27,7.80
2016,03,07,05,28,7.80
2016,03,07,05,29,7.80
2016,03,07,05,30,7.80
2016,03,07,05,31,7.80
2016,03,07,05,32,7.80
2016,03,07,05,33,7.80
2016,03,07,05,34,7.80
2016,03,07,05,35,7.80
2016,03,07,05,36,7.80
2016,03,07,05,37,7.80
2016,03,07,05,38,7.80
2016,03,07,05,39,7.80
2016,03,07,05,40,7.80
2016,03,07,05,41,7.80
2016,03,07,05,42,7.80
2016,03,07,05,43,7.80
2016,03,07,05,44,7.70
2016,03,07,05,45,7.70
2016,03,07,05,46,7.70
2016,03,07,05,47,7.70
2016,03,07,05,48,7.70
2016,03,07,05,49,7.70
2016,03,07,05,50,7.70
2016,03,07,05,52,7.70
2016,03,07,05,53,7.60
2016,03,07,05,54,7.60
2016,03,07,05,56,7.60
2016,03,07,05,57,7.60
2016,03,07,05,58,7.60
2016,03,07,05,59,7.60
2016,03,07,06,01,7.60
2016,03,07,06,02,7.60
2016,03,07,06,03,7.60
2016,03,07,06,04,7.60
2016,03,07,06,06,7.60
2016,03,07,06,07,7.60
2016,03,07,06,08,7.60
2016,03,07,06,09,7.60
2016,03,07,06,11,7.60
2016,03,07,06,12,7.60
2016,03,07,06,13,7.60
2016,03,07,06,14,7.60
2016,03,07,06,16,7.60
2016,03,07,06,17,7.60
2016,03,07,06,18,7.60
2016,03,07,06,19,7.60
2016,03,07,06,21,7.40
2016,03,07,06,22,7.40
2016,03,07,06,23,7.40
2016,03,07,06,24,7.30
2016,03,07,06,26,7.30
2016,03,07,06,27,7.30
2016,03,07,06,28,7.30
2016,03,07,06,29,7.30
2016,03,07,06,31,7.20
2016,03,07,06,32,7.10
2016,03,07,06,33,7.10
2016,03,07,06,34,7.00
2016,03,07,06,36,7.00
2016,03,07,06,37,7.00
2016,03,07,06,38,6.90
2016,03,07,06,39,6.90
2016,03,07,06,41,6.80
2016,03,07,06,42,6.80
2016,03,07,06,43,6.80
2016,03,07,06,44,6.80
2016,03,07,06,46,6.80
2016,03,07,06,47,6.80
2016,03,07,06,48,6.70
2016,03,07,06,49,6.70
2016,03,07,06,51,6.70
2016,03,07,06,52,6.70
2016,03,07,06,53,6.70
2016,03,07,06,54,6.70
2016,03,07,06,56,6.70
2016,03,07,06,57,6.70
2016,03,07,06,58,6.60
2016,03,07,06,59,6.60
2016,03,07,07,01,6.60
2016,03,07,07,02,6.60
2016,03,07,07,03,6.60
2016,03,07,07,04,6.60
2016,03,07,07,06,6.60
2016,03,07,07,07,6.60
2016,03,07,07,08,6.60
2016,03,07,07,09,6.60
2016,03,07,07,10,6.70
2016,03,07,07,11,6.70
2016,03,07,07,12,6.70
2016,03,07,07,13,6.70
2016,03,07,07,14,6.70
2016,03,07,07,15,6.70
2016,03,07,07,16,6.70
2016,03,07,07,17,6.70
2016,03,07,07,18,6.70
2016,03,07,07,19,6.70
2016,03,07,07,20,6.70
2016,03,07,07,21,6.70
2016,03,07,07,22,6.70
2016,03,07,07,23,6.70
2016,03,07,07,24,6.70
2016,03,07,07,25,6.70
2016,03,07,07,26,6.70
2016,03,07,07,27,6.70
2016,03,07,07,28,6.70
2016,03,07,07,29,6.70
2016,03,07,07,30,6.70
2016,03,07,07,31,6.70
2016,03,07,07,32,6.70
2016,03,07,07,33,6.70
2016,03,07,07,34,6.80
2016,03,07,07,35,6.80
2016,03,07,07,36,6.80
2016,03,07,07,37,6.80
2016,03,07,07,38,6.80
2016,03,07,07,39,6.80
2016,03,07,07,40,6.80
2016,03,07,07,41,6.80
2016,03,07,07,42,6.80
2016,03,07,07,43,6.80
2016,03,07,07,44,6.80
2016,03,07,07,45,6.80
2016,03,07,07,46,6.80
2016,03,07,07,47,6.80
2016,03,07,07,48,6.80
2016,03,07,07,49,6.80
2016,03,07,07,50,6.80
2016,03,07,07,51,6.70
2016,03,07,07,52,6.70
2016,03,07,07,53,6.70
2016,03,07,07,54,6.70
2016,03,07,07,55,6.60
2016,03,07,07,56,6.60
2016,03,07,07,57,6.60
2016,03,07,07,58,6.60
2016,03,07,07,59,6.60
2016,03,07,08,00,6.60
2016,03,07,08,01,6.60
2016,03,07,08,02,6.60
2016,03,07,08,03,6.60
2016,03,07,08,04,6.60
2016,03,07,08,05,6.40
2016,03,07,08,06,6.40
2016,03,07,08,07,6.40
2016,03,07,08,08,6.40
2016,03,07,08,09,6.40
2016,03,07,08,10,6.40
2016,03,07,08,11,6.40
2016,03,07,08,12,6.60
2016,03,07,08,13,6.60
2016,03,07,08,14,6.60
2016,03,07,08,15,6.60
2016,03,07,08,16,6.60
2016,03,07,08,17,6.60
2016,03,07,08,18,6.60
2016,03,07,08,19,6.60
2016,03,07,08,21,6.60
2016,03,07,08,22,6.60
2016,03,07,08,23,6.60
2016,03,07,08,24,6.60
2016,03,07,08,26,6.60
2016,03,07,08,27,6.60
2016,03,07,08,28,6.60
2016,03,07,08,29,6.60
2016,03,07,08,31,6.60
2016,03,07,08,32,6.60
2016,03,07,08,33,6.60
2016,03,07,08,34,6.60
2016,03,07,08,36,6.60
2016,03,07,08,37,6.60
2016,03,07,08,38,6.60
2016,03,07,08,39,6.60
2016,03,07,08,41,6.60
2016,03,07,08,42,6.60
2016,03,07,08,43,6.60
2016,03,07,08,44,6.60
2016,03,07,08,46,6.60
2016,03,07,08,47,6.70
2016,03,07,08,48,6.70
2016,03,07,08,49,6.70
2016,03,07,08,51,6.70
2016,03,07,08,52,6.70
2016,03,07,08,53,6.70
2016,03,07,08,54,6.70
2016,03,07,08,55,6.70
2016,03,07,08,56,6.70
2016,03,07,08,57,6.70
2016,03,07,08,58,6.70
2016,03,07,08,59,6.70
2016,03,07,09,01,6.70
2016,03,07,09,02,6.70
2016,03,07,09,03,6.70
2016,03,07,09,04,6.70
2016,03,07,09,06,6.70
2016,03,07,09,07,6.70
2016,03,07,09,08,6.70
2016,03,07,09,09,6.70
2016,03,07,09,10,6.70
2016,03,07,09,11,6.70
2016,03,07,09,12,6.80
2016,03,07,09,13,6.80
2016,03,07,09,14,6.80
2016,03,07,09,15,6.80
2016,03,07,09,16,6.80
2016,03,07,09,17,6.80
2016,03,07,09,18,6.80
2016,03,07,09,19,6.80
2016,03,07,09,20,6.80
2016,03,07,09,21,6.80
2016,03,07,09,22,6.80
2016,03,07,09,23,6.80
2016,03,07,09,24,6.80
2016,03,07,09,25,6.80
2016,03,07,09,26,6.80
2016,03,07,09,27,6.80
2016,03,07,09,28,6.80
2016,03,07,09,29,6.80
2016,03,07,09,30,6.80
2016,03,07,09,31,6.80
2016,03,07,09,32,6.80
2016,03,07,09,33,6.80
2016,03,07,09,34,6.80
2016,03,07,09,35,6.80
2016,03,07,09,36,6.80
2016,03,07,09,37,6.80
2016,03,07,09,38,6.80
2016,03,07,09,39,6.90
2016,03,07,09,40,6.90
2016,03,07,09,41,6.90
2016,03,07,09,42,6.90
2016,03,07,09,43,6.90
2016,03,07,09,44,6.90
2016,03,07,09,45,6.90
2016,03,07,09,46,6.90
2016,03,07,09,47,6.90
2016,03,07,09,48,6.90
2016,03,07,09,49,6.90
2016,03,07,09,50,6.90
2016,03,07,09,51,6.90
2016,03,07,09,52,6.90
2016,03,07,09,53,6.90
2016,03,07,09,54,7.00
2016,03,07,09,55,7.00
2016,03,07,09,56,7.00
2016,03,07,09,57,7.00
2016,03,07,09,58,7.00
2016,03,07,09,59,7.10
2016,03,07,10,00,7.10
2016,03,07,10,01,7.10
2016,03,07,10,02,7.10
2016,03,07,10,03,7.10
2016,03,07,10,04,7.10
2016,03,07,10,05,7.10
2016,03,07,10,06,7.20
2016,03,07,10,07,7.20
2016,03,07,10,08,7.20
2016,03,07,10,09,7.20
2016,03,07,10,10,7.20
2016,03,07,10,11,7.20
2016,03,07,10,12,7.20
2016,03,07,10,13,7.20
2016,03,07,10,14,7.30
2016,03,07,10,15,7.30
2016,03,07,10,16,7.30
2016,03,07,10,17,7.30
2016,03,07,10,18,7.30
2016,03,07,10,19,7.30
2016,03,07,10,20,7.30
2016,03,07,10,21,7.30
2016,03,07,10,22,7.30
2016,03,07,10,23,7.30
2016,03,07,10,24,7.30
2016,03,07,10,25,7.30
2016,03,07,10,26,7.30
2016,03,07,10,28,7.40
2016,03,07,10,29,7.40
2016,03,07,10,31,7.40
2016,03,07,10,32,7.50
2016,03,07,10,33,7.50
2016,03,07,10,34,7.50
2016,03,07,10,36,7.60
2016,03,07,10,37,7.60
2016,03,07,10,38,7.60
2016,03,07,10,39,7.60
2016,03,07,10,41,7.60
2016,03,07,10,42,7.60
2016,03,07,10,43,7.60
2016,03,07,10,44,7.60
2016,03,07,10,46,7.70
2016,03,07,10,47,7.70
2016,03,07,10,48,7.70
2016,03,07,10,49,7.70
2016,03,07,10,51,7.70
2016,03,07,10,52,7.80
2016,03,07,10,53,7.80
2016,03,07,10,54,7.80
2016,03,07,10,56,7.80
2016,03,07,10,57,7.80
2016,03,07,10,58,7.80
2016,03,07,10,59,7.80
2016,03,07,11,01,7.90
2016,03,07,11,02,7.90
2016,03,07,11,03,7.90
2016,03,07,11,04,8.00
2016,03,07,11,06,8.00
2016,03,07,11,07,8.00
2016,03,07,11,08,8.10
2016,03,07,11,09,8.10
2016,03,07,11,11,8.20
2016,03,07,11,12,8.20
2016,03,07,11,13,8.20
2016,03,07,11,14,8.20
2016,03,07,11,16,8.20
2016,03,07,11,17,8.20
2016,03,07,11,18,8.20
2016,03,07,11,19,8.20
2016,03,07,11,21,8.20
2016,03,07,11,22,8.20
2016,03,07,11,23,8.20
2016,03,07,11,24,8.30
2016,03,07,11,26,8.30
2016,03,07,11,27,8.30
2016,03,07,11,28,8.30
2016,03,07,11,29,8.40
2016,03,07,11,31,8.40
2016,03,07,11,32,8.40
2016,03,07,11,33,8.40
2016,03,07,11,34,8.40
2016,03,07,11,36,8.50
2016,03,07,11,37,8.50
2016,03,07,11,38,8.50
2016,03,07,11,39,8.50
2016,03,07,11,41,8.60
2016,03,07,11,42,8.60
2016,03,07,11,43,8.60
2016,03,07,11,44,8.60
2016,03,07,11,45,8.60
2016,03,07,11,46,8.60
2016,03,07,11,47,8.60
2016,03,07,11,48,8.70
2016,03,07,11,49,8.70
2016,03,07,11,51,8.70
2016,03,07,11,52,8.60
2016,03,07,11,53,8.60
2016,03,07,11,54,8.60
2016,03,07,11,55,8.60
2016,03,07,11,56,8.60
2016,03,07,11,57,8.70
2016,03,07,11,58,8.70
2016,03,07,11,59,8.70
2016,03,07,12,00,8.70
2016,03,07,12,01,8.70
2016,03,07,12,02,8.70
2016,03,07,12,03,8.70
2016,03,07,12,04,8.70
2016,03,07,12,05,8.70
2016,03,07,12,06,8.70
2016,03,07,12,07,8.70
2016,03,07,12,08,8.80
2016,03,07,12,09,8.80
2016,03,07,12,10,8.80
2016,03,07,12,11,8.80
2016,03,07,12,12,8.80
2016,03,07,12,13,8.80
2016,03,07,12,14,8.80
2016,03,07,12,15,8.80
2016,03,07,12,16,8.70
2016,03,07,12,17,8.70
2016,03,07,12,18,8.70
2016,03,07,12,19,8.70
2016,03,07,12,20,8.70
2016,03,07,12,21,8.80
2016,03,07,12,22,8.80
2016,03,07,12,23,8.80
2016,03,07,12,24,8.80
2016,03,07,12,25,8.80
2016,03,07,12,26,8.80
2016,03,07,12,27,8.80
2016,03,07,12,28,8.80
2016,03,07,12,29,8.80
2016,03,07,12,30,8.80
2016,03,07,12,31,8.80
2016,03,07,12,32,8.80
2016,03,07,12,33,8.80
2016,03,07,12,34,8.90
2016,03,07,12,35,8.90
2016,03,07,12,36,8.90
2016,03,07,12,37,8.90
2016,03,07,12,38,8.90
2016,03,07,12,39,8.90
2016,03,07,12,40,8.90
2016,03,07,12,41,8.90
2016,03,07,12,42,8.90
2016,03,07,12,43,8.90
2016,03,07,12,44,8.90
2016,03,07,12,45,8.90
2016,03,07,12,46,8.90
2016,03,07,12,47,8.90
2016,03,07,12,48,8.90
2016,03,07,12,49,8.90
2016,03,07,12,50,8.90
2016,03,07,12,51,8.90
2016,03,07,12,52,8.90
2016,03,07,12,53,8.90
2016,03,07,12,54,8.90
2016,03,07,12,55,8.90
2016,03,07,12,56,8.90
2016,03,07,12,57,8.90
2016,03,07,12,58,8.90
2016,03,07,12,59,9.00
2016,03,07,13,00,9.00
2016,03,07,13,01,9.00
2016,03,07,13,02,9.00
2016,03,07,13,03,9.00
2016,03,07,13,04,9.00
2016,03,07,13,05,9.00
2016,03,07,13,06,9.00
2016,03,07,13,07,9.00
2016,03,07,13,08,9.00
2016,03,07,13,09,9.00
2016,03,07,13,10,9.10
2016,03,07,13,11,9.10
2016,03,07,13,12,9.10
2016,03,07,13,13,9.10
2016,03,07,13,14,9.10
2016,03,07,13,16,9.10
2016,03,07,13,17,9.20
2016,03,07,13,18,9.20
2016,03,07,13,19,9.20
2016,03,07,13,21,9.20
2016,03,07,13,22,9.20
2016,03,07,13,23,9.20
2016,03,07,13,24,9.20
2016,03,07,13,26,9.30
2016,03,07,13,27,9.30
2016,03,07,13,28,9.30
2016,03,07,13,29,9.30
2016,03,07,13,31,9.40
2016,03,07,13,32,9.40
2016,03,07,13,33,9.40
2016,03,07,13,34,9.40
2016,03,07,13,36,9.50
2016,03,07,13,37,9.50
2016,03,07,13,38,9.50
2016,03,07,13,39,9.50
2016,03,07,13,41,9.50
2016,03,07,13,42,9.50
2016,03,07,13,43,9.50
2016,03,07,13,44,9.50
2016,03,07,13,46,9.50
2016,03,07,13,47,9.50
2016,03,07,13,48,9.50
2016,03,07,13,49,9.50
2016,03,07,13,51,9.50
2016,03,07,13,52,9.50
2016,03,07,13,53,9.50
2016,03,07,13,54,9.50
2016,03,07,13,56,9.60
2016,03,07,13,57,9.60
2016,03,07,13,58,9.60
2016,03,07,13,59,9.70
2016,03,07,14,01,9.70
2016,03,07,14,02,9.70
2016,03,07,14,03,9.70
2016,03,07,14,04,9.70
2016,03,07,14,06,9.70
2016,03,07,14,07,9.70
2016,03,07,14,08,9.70
2016,03,07,14,09,9.70
2016,03,07,14,11,9.70
2016,03,07,14,12,9.80
2016,03,07,14,13,9.80
2016,03,07,14,14,9.80
2016,03,07,14,16,9.80
2016,03,07,14,17,9.80
2016,03,07,14,18,9.80
2016,03,07,14,19,9.80
2016,03,07,14,21,9.90
2016,03,07,14,22,9.90
2016,03,07,14,23,9.90
2016,03,07,14,24,9.80
2016,03,07,14,25,9.80
2016,03,07,14,26,9.80
2016,03,07,14,27,9.80
2016,03,07,14,28,9.80
2016,03,07,14,29,9.80
2016,03,07,14,30,9.80
2016,03,07,14,31,9.80
2016,03,07,14,32,9.70
2016,03,07,14,33,9.70
2016,03,07,14,34,9.70
2016,03,07,14,35,9.70
2016,03,07,14,36,9.70
2016,03,07,14,37,9.70
2016,03,07,14,38,9.70
2016,03,07,14,39,9.80
2016,03,07,14,40,9.80
2016,03,07,14,41,9.80
2016,03,07,14,42,9.80
2016,03,07,14,43,9.80
2016,03,07,14,44,9.80
2016,03,07,14,45,9.80
2016,03,07,14,46,9.80
2016,03,07,14,47,9.80
2016,03,07,14,48,9.80
2016,03,07,14,49,9.80
2016,03,07,14,50,9.80
2016,03,07,14,51,9.80
2016,03,07,14,52,9.80
2016,03,07,14,53,9.80
2016,03,07,14,54,9.80
2016,03,07,14,55,9.80
2016,03,07,14,56,9.80
2016,03,07,14,57,9.80
2016,03,07,14,58,9.80
2016,03,07,14,59,9.80
2016,03,07,15,00,9.80
2016,03,07,15,01,9.80
2016,03,07,15,02,9.80
2016,03,07,15,03,9.80
2016,03,07,15,04,9.80
2016,03,07,15,05,9.80
2016,03,07,15,06,9.80
2016,03,07,15,07,9.80
2016,03,07,15,08,9.90
2016,03,07,15,09,9.90
2016,03,07,15,10,9.90
2016,03,07,15,11,9.80
2016,03,07,15,12,9.80
2016,03,07,15,13,9.80
2016,03,07,15,14,9.80
2016,03,07,15,15,9.80
2016,03,07,15,16,9.80
2016,03,07,15,17,9.80
2016,03,07,15,18,9.80
2016,03,07,15,19,9.80
2016,03,07,15,20,9.80
2016,03,07,15,21,9.80
2016,03,07,15,22,9.80
2016,03,07,15,23,9.80
2016,03,07,15,24,9.80
2016,03,07,15,25,9.80
2016,03,07,15,26,9.80
2016,03,07,15,27,9.80
2016,03,07,15,28,9.80
2016,03,07,15,29,9.80
2016,03,07,15,30,9.80
2016,03,07,15,31,9.80
2016,03,07,15,32,9.80
2016,03,07,15,33,9.80
2016,03,07,15,34,9.80
2016,03,07,15,35,9.80
2016,03,07,15,36,9.80
2016,03,07,15,37,9.80
2016,03,07,15,38,9.80
2016,03,07,15,39,9.80
2016,03,07,15,40,9.80
2016,03,07,15,41,9.80
2016,03,07,15,42,9.80
2016,03,07,15,43,9.80
2016,03,07,15,44,9.80
2016,03,07,15,45,9.80
2016,03,07,15,47,9.80
2016,03,07,15,48,9.80
2016,03,07,15,49,9.80
2016,03,07,15,51,9.70
2016,03,07,15,52,9.70
2016,03,07,15,53,9.70
2016,03,07,15,54,9.70
2016,03,07,15,56,9.70
2016,03,07,15,57,9.70
2016,03,07,15,58,9.70
2016,03,07,15,59,9.70
2016,03,07,16,01,9.70
2016,03,07,16,02,9.70
2016,03,07,16,03,9.70
2016,03,07,16,04,9.70
2016,03,07,16,06,9.70
2016,03,07,16,07,9.70
2016,03,07,16,08,9.60
2016,03,07,16,09,9.60
2016,03,07,16,11,9.60
2016,03,07,16,12,9.60
2016,03,07,16,13,9.60
2016,03,07,16,14,9.60
2016,03,07,16,16,9.60
2016,03,07,16,17,9.60
2016,03,07,16,18,9.60
2016,03,07,16,19,9.60
2016,03,07,16,21,9.70
2016,03,07,16,22,9.70
2016,03,07,16,23,9.70
2016,03,07,16,24,9.70
2016,03,07,16,26,9.70
2016,03,07,16,27,9.70
2016,03,07,16,28,9.70
2016,03,07,16,29,9.70
2016,03,07,16,31,9.70
2016,03,07,16,32,9.70
2016,03,07,16,33,9.70
2016,03,07,16,34,9.70
2016,03,07,16,36,9.70
2016,03,07,16,37,9.70
2016,03,07,16,38,9.70
2016,03,07,16,39,9.70
2016,03,07,16,41,9.70
2016,03,07,16,42,9.70
2016,03,07,16,43,9.70
2016,03,07,16,44,9.70
2016,03,07,16,46,9.80
2016,03,07,16,47,9.80
2016,03,07,16,48,9.80
2016,03,07,16,49,9.80
2016,03,07,16,51,9.80
2016,03,07,16,52,9.80
2016,03,07,16,53,9.80
2016,03,07,16,54,9.90
2016,03,07,16,55,9.90
2016,03,07,16,56,9.90
2016,03,07,16,57,9.90
2016,03,07,16,58,9.90
2016,03,07,16,59,9.90
2016,03,07,17,00,9.90
2016,03,07,17,01,9.90
2016,03,07,17,02,9.90
2016,03,07,17,03,9.90
2016,03,07,17,04,9.90
2016,03,07,17,05,9.90
2016,03,07,17,06,9.90
2016,03,07,17,07,9.90
2016,03,07,17,08,9.80
2016,03,07,17,09,9.80
2016,03,07,17,10,9.80
2016,03,07,17,11,9.80
2016,03,07,17,12,9.80
2016,03,07,17,13,9.80
2016,03,07,17,14,9.70
2016,03,07,17,15,9.70
2016,03,07,17,16,9.70
2016,03,07,17,17,9.70
2016,03,07,17,18,9.70
2016,03,07,17,19,9.70
2016,03,07,17,20,9.70
2016,03,07,17,21,9.70
2016,03,07,17,22,9.70
2016,03,07,17,23,9.70
2016,03,07,17,24,9.70
2016,03,07,17,25,9.70
2016,03,07,17,26,9.70
2016,03,07,17,27,9.70
2016,03,07,17,28,9.70
2016,03,07,17,29,9.70
2016,03,07,17,30,9.70
2016,03,07,17,31,9.70
2016,03,07,17,32,9.70
2016,03,07,17,33,9.70
2016,03,07,17,34,9.70
2016,03,07,17,35,9.70
2016,03,07,17,36,9.60
2016,03,07,17,37,9.60
2016,03,07,17,38,9.60
2016,03,07,17,39,9.60
2016,03,07,17,40,9.50
2016,03,07,17,41,9.50
2016,03,07,17,42,9.50
2016,03,07,17,43,9.50
2016,03,07,17,44,9.50
2016,03,07,17,45,9.40
2016,03,07,17,46,9.40
2016,03,07,17,47,9.40
2016,03,07,17,48,9.30
2016,03,07,17,49,9.20
2016,03,07,17,50,9.20
2016,03,07,17,51,9.20
2016,03,07,17,52,9.20
2016,03,07,17,53,9.20
2016,03,07,17,54,9.20
2016,03,07,17,55,9.10
2016,03,07,17,56,9.10
2016,03,07,17,57,9.10
2016,03,07,17,58,9.10
2016,03,07,17,59,9.00
2016,03,07,18,00,9.00
2016,03,07,18,01,9.00
2016,03,07,18,02,8.90
2016,03,07,18,03,8.90
2016,03,07,18,04,8.90
2016,03,07,18,05,8.90
2016,03,07,18,06,8.90
2016,03,07,18,07,8.90
2016,03,07,18,08,8.80
2016,03,07,18,09,8.80
2016,03,07,18,11,8.80
2016,03,07,18,12,8.80
2016,03,07,18,13,8.80
2016,03,07,18,14,8.80
2016,03,07,18,16,8.70
2016,03,07,18,17,8.70
2016,03,07,18,18,8.70
2016,03,07,18,19,8.70
2016,03,07,18,21,8.70
2016,03,07,18,22,8.70
2016,03,07,18,23,8.70
2016,03,07,18,24,8.70
2016,03,07,18,26,8.70
2016,03,07,18,27,8.70
2016,03,07,18,28,8.70
2016,03,07,18,29,8.70
2016,03,07,18,31,8.60
2016,03,07,18,32,8.60
2016,03,07,18,33,8.60
2016,03,07,18,34,8.60
2016,03,07,18,36,8.60
2016,03,07,18,37,8.50
2016,03,07,18,38,8.50
2016,03,07,18,39,8.50
2016,03,07,18,41,8.50
2016,03,07,18,42,8.50
2016,03,07,18,43,8.50
2016,03,07,18,44,8.40
2016,03,07,18,46,8.40
2016,03,07,18,47,8.40
2016,03,07,18,48,8.40
2016,03,07,18,49,8.40
2016,03,07,18,51,8.30
2016,03,07,18,52,8.30
2016,03,07,18,53,8.30
2016,03,07,18,54,8.30
2016,03,07,18,56,8.30
2016,03,07,18,57,8.30
2016,03,07,18,58,8.30
2016,03,07,18,59,8.30
2016,03,07,19,01,8.20
2016,03,07,19,02,8.20
2016,03,07,19,03,8.20
2016,03,07,19,04,8.20
2016,03,07,19,06,8.20
2016,03,07,19,07,8.20
2016,03,07,19,08,8.20
2016,03,07,19,09,8.20
2016,03,07,19,11,8.20
2016,03,07,19,12,8.20
2016,03,07,19,13,8.20
2016,03,07,19,14,8.20
2016,03,07,19,16,8.20
2016,03,07,19,17,8.20
2016,03,07,19,18,8.20
2016,03,07,19,19,8.20
2016,03,07,19,20,8.10
2016,03,07,19,21,8.10
2016,03,07,19,22,8.10
2016,03,07,19,23,8.10
2016,03,07,19,24,8.10
2016,03,07,19,25,8.10
2016,03,07,19,26,8.10
2016,03,07,19,27,8.00
2016,03,07,19,28,8.00
2016,03,07,19,29,8.00
2016,03,07,19,30,8.00
2016,03,07,19,31,8.00
2016,03,07,19,32,8.00
2016,03,07,19,33,8.00
2016,03,07,19,34,8.00
2016,03,07,19,35,8.00
2016,03,07,19,36,7.90
2016,03,07,19,37,7.90
2016,03,07,19,38,7.90
2016,03,07,19,39,7.90
2016,03,07,19,40,7.90
2016,03,07,19,41,7.90
2016,03,07,19,42,7.90
2016,03,07,19,43,7.80
2016,03,07,19,44,7.80
2016,03,07,19,45,7.80
2016,03,07,19,46,7.80
2016,03,07,19,47,7.80
2016,03,07,19,48,7.80
2016,03,07,19,49,7.80
2016,03,07,19,50,7.80
2016,03,07,19,51,7.80
2016,03,07,19,52,7.80
2016,03,07,19,53,7.80
2016,03,07,19,54,7.80
2016,03,07,19,55,7.80
2016,03,07,19,56,7.80